When you browse on this site, cookies collect data to enhance your experience and personalize the content and advertising you see.
Visit our Privacy Policy to learn more. By continuing to use the site, you agree to this use of cookies and data.
  • In Norway
  • List of Countries
  • For 7 days
  • Water Temperature
  • Satellite Maps
  • Weather Map
  • Weather Widgets
  • user-avatar
    Login

    Hourly Weather Salzburg

    Today, 23 February, Saturday

    Time Temperature Precipitation Wind Pressure Humidity
    00:00 -3°C° 0.1 mm 1 mps 634 mmHg 97%
    01:00 -4°C° 0.1 mm 1 mps 634 mmHg 98%
    02:00 -6°C° 0 mm 1 mps 634 mmHg 97%
    03:00 -7°C° 0 mm 1 mps 634 mmHg 97%
    04:00 -7°C° 0 mm 0 mps 634 mmHg 96%
    05:00 -8°C° 0 mm 0 mps 633 mmHg 95%
    06:00 -9°C° 0 mm 0 mps 633 mmHg 93%
    07:00 -10°C° 0 mm 0 mps 633 mmHg 91%
    08:00 -8°C° 0 mm 0 mps 634 mmHg 85%
    09:00 -6°C° 0 mm 1 mps 634 mmHg 79%
    10:00 -4°C° 0 mm 1 mps 635 mmHg 73%
    11:00 -3°C° 0 mm 1 mps 635 mmHg 73%
    12:00 -2°C° 0 mm 1 mps 635 mmHg 73%
    13:00 -2°C° 0 mm 1 mps 635 mmHg 74%
    14:00 -2°C° 0 mm 1 mps 635 mmHg 75%
    15:00 -2°C° 0 mm 1 mps 634 mmHg 76%
    16:00 -2°C° 0 mm 1 mps 634 mmHg 78%
    17:00 -4°C° 0 mm 1 mps 634 mmHg 77%
    18:00 -7°C° 0 mm 1 mps 633 mmHg 77%
    19:00 -9°C° 0 mm 1 mps 633 mmHg 77%
    20:00 -9°C° 0 mm 1 mps 633 mmHg 74%
    21:00 -10°C° 0 mm 1 mps 633 mmHg 70%
    22:00 -10°C° 0 mm 1 mps 633 mmHg 67%
    23:00 -10°C° 0 mm 1 mps 633 mmHg 64%

    Tomorrow, 24 February, Sunday

    Time Temperature Precipitation Wind Pressure Humidity
    00:00 -10°C° 0 mm 1 mps 633 mmHg 62%
    01:00 -10°C° 0 mm 1 mps 633 mmHg 60%
    02:00 -9°C° 0 mm 1 mps 633 mmHg 59%
    03:00 -9°C° 0 mm 1 mps 633 mmHg 59%
    04:00 -9°C° 0 mm 1 mps 632 mmHg 59%
    05:00 -9°C° 0 mm 1 mps 633 mmHg 59%
    06:00 -9°C° 0 mm 1 mps 633 mmHg 59%
    07:00 -9°C° 0 mm 1 mps 633 mmHg 59%
    08:00 -6°C° 0 mm 1 mps 634 mmHg 65%
    09:00 -4°C° 0 mm 0 mps 635 mmHg 71%
    10:00 -1°C° 0 mm 0 mps 636 mmHg 77%
    11:00 -1°C° 0 mm 0 mps 635 mmHg 80%
    12:00 -1°C° 0 mm 0 mps 635 mmHg 84%
    13:00 +1°C° 0 mm 1 mps 635 mmHg 88%
    14:00 +1°C° 0 mm 1 mps 635 mmHg 88%
    15:00 +1°C° 0 mm 1 mps 635 mmHg 89%
    16:00 0°C° 0 mm 1 mps 635 mmHg 90%
    17:00 -1°C° 0 mm 1 mps 635 mmHg 88%
    18:00 -3°C° 0 mm 1 mps 635 mmHg 86%
    19:00 -5°C° 0 mm 0 mps 634 mmHg 84%
    20:00 -4°C° 0 mm 1 mps 634 mmHg 83%
    21:00 -4°C° 0 mm 1 mps 634 mmHg 83%
    22:00 -6°C° 0 mm 1 mps 635 mmHg 82%
    23:00 -6°C° 0 mm 1 mps 635 mmHg 83%

    Day after tomorrow, 25 February, Monday

    Time Temperature Precipitation Wind Pressure Humidity
    00:00 -4°C° 0 mm 1 mps 635 mmHg 83%
    01:00 -4°C° 0 mm 1 mps 635 mmHg 84%
    02:00 -4°C° 0 mm 1 mps 635 mmHg 85%
    03:00 -4°C° 0 mm 1 mps 635 mmHg 86%
    04:00 -4°C° 0 mm 1 mps 634 mmHg 87%
    05:00 -3°C° 0 mm 1 mps 635 mmHg 87%
    06:00 -3°C° 0 mm 1 mps 635 mmHg 88%
    07:00 -2°C° 0 mm 1 mps 635 mmHg 88%
    08:00 -1°C° 0 mm 1 mps 635 mmHg 90%
    09:00 -1°C° 0 mm 0 mps 636 mmHg 92%
    10:00 0°C° 0 mm 0 mps 636 mmHg 93%
    11:00 0°C° 0 mm 0 mps 636 mmHg 93%
    12:00 +2°C° 0 mm 1 mps 636 mmHg 94%
    13:00 +2°C° 0 mm 1 mps 636 mmHg 94%
    14:00 +1°C° 0 mm 0 mps 636 mmHg 94%
    15:00 0°C° 0 mm 0 mps 635 mmHg 94%
    16:00 0°C° 0 mm 0 mps 635 mmHg 94%
    17:00 -1°C° 0 mm 0 mps 635 mmHg 94%
    18:00 -1°C° 0 mm 1 mps 635 mmHg 93%
    19:00 -2°C° 0 mm 1 mps 635 mmHg 92%
    20:00 -2°C° 0 mm 1 mps 635 mmHg 88%
    21:00 -3°C° 0 mm 1 mps 635 mmHg 85%
    22:00 -4°C° 0 mm 1 mps 634 mmHg 82%
    23:00 -4°C° 0 mm 1 mps 634 mmHg 80%

    26 February, Tuesday

    Time Temperature Precipitation Wind Pressure Humidity
    00:00 -4°C° 0 mm 1 mps 634 mmHg 78%
    01:00 -4°C° 0 mm 1 mps 634 mmHg 76%
    02:00 -4°C° 0 mm 1 mps 634 mmHg 73%
    03:00 -4°C° 0 mm 1 mps 633 mmHg 70%
    04:00 -4°C° 0 mm 1 mps 633 mmHg 67%
    05:00 -4°C° 0 mm 1 mps 633 mmHg 65%
    06:00 -4°C° 0 mm 1 mps 633 mmHg 63%
    07:00 -4°C° 0 mm 1 mps 633 mmHg 60%
    08:00 -2°C° 0 mm 1 mps 633 mmHg 69%
    09:00 0°C° 0 mm 1 mps 634 mmHg 77%
    10:00 +2°C° 0 mm 1 mps 635 mmHg 85%
    11:00 +2°C° 0 mm 1 mps 635 mmHg 85%
    12:00 +2°C° 0 mm 0 mps 634 mmHg 85%
    13:00 +3°C° 0 mm 0 mps 634 mmHg 86%
    14:00 +2°C° 0 mm 0 mps 634 mmHg 87%
    15:00 +2°C° 0 mm 0 mps 634 mmHg 89%
    16:00 +2°C° 0 mm 0 mps 633 mmHg 90%
    17:00 0°C° 0 mm 0 mps 633 mmHg 85%
    18:00 0°C° 0 mm 1 mps 633 mmHg 81%
    19:00 -1°C° 0 mm 1 mps 633 mmHg 76%
    20:00 -2°C° 0 mm 1 mps 633 mmHg 75%
    21:00 -2°C° 0 mm 1 mps 633 mmHg 74%
    22:00 -2°C° 0 mm 1 mps 633 mmHg 73%
    23:00 -2°C° 0 mm 1 mps 633 mmHg 71%

    27 February, Wednesday

    Time Temperature Precipitation Wind Pressure Humidity
    00:00 -2°C° 0 mm 1 mps 632 mmHg 69%
    01:00 -2°C° 0 mm 1 mps 632 mmHg 68%
    02:00 -2°C° 0 mm 1 mps 632 mmHg 67%
    03:00 -2°C° 0 mm 1 mps 632 mmHg 66%
    04:00 -2°C° 0 mm 1 mps 631 mmHg 65%
    05:00 -2°C° 0 mm 1 mps 631 mmHg 66%
    06:00 -2°C° 0 mm 1 mps 631 mmHg 66%
    07:00 -2°C° 0 mm 1 mps 631 mmHg 66%
    08:00 0°C° 0 mm 1 mps 632 mmHg 73%
    09:00 +1°C° 0 mm 1 mps 632 mmHg 80%
    10:00 +3°C° 0 mm 1 mps 632 mmHg 87%
    11:00 +3°C° 0 mm 0 mps 632 mmHg 87%
    12:00 +3°C° 0 mm 0 mps 632 mmHg 87%
    13:00 +4°C° 0 mm 0 mps 632 mmHg 88%
    14:00 +4°C° 0 mm 0 mps 631 mmHg 89%
    15:00 +3°C° 0 mm 0 mps 631 mmHg 90%
    16:00 +4°C° 0 mm 1 mps 630 mmHg 92%
    17:00 +3°C° 0 mm 1 mps 630 mmHg 88%
    18:00 +2°C° 0 mm 1 mps 630 mmHg 85%
    19:00 -1°C° 0 mm 2 mps 630 mmHg 82%
    20:00 -1°C° 0 mm 2 mps 630 mmHg 79%
    21:00 -2°C° 0 mm 2 mps 630 mmHg 76%
    22:00 -2°C° 0 mm 2 mps 630 mmHg 73%
    23:00 -2°C° 0 mm 2 mps 629 mmHg 72%

    28 February, Thursday

    Time Temperature Precipitation Wind Pressure Humidity
    00:00 -2°C° 0 mm 2 mps 629 mmHg 70%
    01:00 -2°C° 0 mm 2 mps 629 mmHg 69%
    02:00 -2°C° 0 mm 2 mps 629 mmHg 69%
    03:00 -1°C° 0 mm 1 mps 629 mmHg 70%
    04:00 -1°C° 0 mm 1 mps 628 mmHg 70%
    05:00 -1°C° 0 mm 1 mps 628 mmHg 71%
    06:00 -1°C° 0 mm 1 mps 628 mmHg 72%
    07:00 -1°C° 0 mm 1 mps 628 mmHg 72%
    08:00 +1°C° 0 mm 1 mps 628 mmHg 77%
    09:00 +2°C° 0 mm 1 mps 629 mmHg 83%
    10:00 +4°C° 0 mm 1 mps 629 mmHg 88%
    11:00 +4°C° 0 mm 1 mps 629 mmHg 87%
    12:00 +5°C° 0 mm 1 mps 629 mmHg 87%
    13:00 +6°C° 0 mm 1 mps 628 mmHg 87%
    14:00 +5°C° 0 mm 1 mps 628 mmHg 88%
    15:00 +5°C° 0 mm 1 mps 627 mmHg 89%
    16:00 +5°C° 0 mm 1 mps 627 mmHg 89%
    17:00 +3°C° 0 mm 1 mps 627 mmHg 87%
    18:00 +2°C° 0 mm 1 mps 627 mmHg 85%
    19:00 +1°C° 0 mm 1 mps 626 mmHg 83%
    20:00 +1°C° 0 mm 1 mps 626 mmHg 83%
    21:00 0°C° 0 mm 1 mps 626 mmHg 82%
    22:00 0°C° 0 mm 1 mps 626 mmHg 82%
    23:00 -1°C° 0 mm 1 mps 626 mmHg 83%
    Show more